Location: ČR
(50.0000°N, 15.0000°E)
Time: 10:47:47
(UTC+02:00)

A-11 Canister half - Pass Details

Date: 19 March 2026
Orbit: 1514 x 1685 km, 47.2° (Epoch: 16 April)

Event Time Altitude Azimuth Distance (km) Brightness Sun altitude
Rises 18:37:19 0° 287° (WNW) 4,921 13.8 -5.0°
Reaches altitude 10° 18:40:37 10° 282° (WNW) 3,942 13.0 -5.5°
Maximum altitude 18:50:07 48° 213° (SSW) 2,115 10.0 -7.1°
Drops below altitude 10° 18:59:35 10° 143° (SE) 3,919 10.7 -8.6°
Sets 19:02:51 0° 138° (SE) 4,890 11.2 -9.1°
